Location: ?????????
(41.2286°N, 23.0068°E)
Time: 08:29:12
(UTC+00:00)

Cosmos 1943 Rocket - Pass Details

Date: 08 November 2025
Orbit: 812 x 841 km, 71.0° (Epoch: 05 December)

Event Time Altitude Azimuth Distance (km) Brightness Sun altitude
Exits shadow 04:06:10 - 331° (NNW) 3,125 4.8 -11.9°
Reaches altitude 10° 04:08:02 10° 328° (NNW) 2,418 4.2 -11.5°
Maximum altitude 04:13:26 57° 251° (WSW) 954 2.2 -10.6°
Drops below altitude 10° 04:18:47 10° 174° (S) 2,391 4.8 -9.6°
Sets 04:21:13 0° 170° (S) 3,318 5.6 -9.1°
